This is the latest recevied weather packets stored in our database for station/object KC5DAQ-25. If no packets are shown the sender has not sent any weather packets the latest 1 day(s).
| Time | Temp. | Humidity | Pressure | Rain* | Wind** | Luminosity | Snow |
|---|---|---|---|---|---|---|---|
| 1778093447 | 27.22° C | 82% | 1001.2 hPa | 0 mm | - | 304 W/m² | - |
| 1778093387 | 27.78° C | 82% | 1001.2 hPa | 0 mm | - | 304 W/m² | - |
| 1778093207 | 27.78° C | 82% | 1001.2 hPa | 0 mm | - | 353 W/m² | - |
| 1778092788 | 28.33° C | 81% | 1001.2 hPa | 0 mm | - | 260 W/m² | - |
| 1778092726 | 27.78° C | 81% | 1001.2 hPa | 0 mm | - | 260 W/m² | - |
| 1778092617 | 27.78° C | 82% | 1001.2 hPa | 0 mm | - | 357 W/m² | - |
| 1778092548 | 27.78° C | 82% | 1001.3 hPa | 0 mm | - | 668 W/m² | - |
| 1778092316 | 27.78° C | 82% | 1001.2 hPa | 0 mm | - | 408 W/m² | - |
| 1778092186 | 27.22° C | 83% | 1001.2 hPa | 0 mm | - | 408 W/m² | - |
| 1778092066 | 27.22° C | 83% | 1001.3 hPa | 0 mm | - | 408 W/m² | - |
| 1778091948 | 27.22° C | 83% | 1001.4 hPa | 0 mm | - | 408 W/m² | - |
| 1778091766 | 27.22° C | 83% | 1001.3 hPa | 0 mm | - | 579 W/m² | - |
| 1778091467 | 26.67° C | 84% | 1001.4 hPa | 0 mm | - | 343 W/m² | - |
| 1778091340 | 26.67° C | 84% | 1001.5 hPa | 0 mm | - | 190 W/m² | - |
| 1778091153 | 26.67° C | 83% | 1001.6 hPa | 0 mm | - | 190 W/m² | - |
| 1778090783 | 26.67° C | 84% | 1001.8 hPa | 0 mm | - | 102 W/m² | - |
| 1778090661 | 26.67° C | 84% | 1001.8 hPa | 0 mm | - | 102 W/m² | - |
| 1778090343 | 26.67° C | 83% | 1002 hPa | 0 mm | - | 102 W/m² | - |
| 1778090282 | 26.67° C | 83% | 1002.1 hPa | 0 mm | - | 95 W/m² | - |
| 1778089804 | 26.67° C | 83% | 1002.2 hPa | 0 mm | - | 104 W/m² | - |
| 1778089624 | 26.67° C | 83% | 1002.2 hPa | 0 mm | - | 95 W/m² | - |
| 1778089563 | 26.67° C | 83% | 1002.2 hPa | 0 mm | - | 95 W/m² | - |
| 1778089444 | 26.67° C | 83% | 1002.4 hPa | 0 mm | - | 95 W/m² | - |
| 1778089262 | 26.67° C | 83% | 1002.3 hPa | 0 mm | - | 93 W/m² | - |
| 1778089144 | 26.67° C | 83% | 1002.3 hPa | 0 mm | - | 90 W/m² | - |
* Rain latest hour (hover to see other rain measurements)
** Current wind speed in m/s (hover to see current wind gust speed)